Voltar ao catálogo

USA 327

AtivoMilitarLEO
NORAD 52259·PAYLOAD·🇺🇸 United States

Lançado Apr 17, 2022 de Vandenberg Space Force Base

Loading…

Próximas Passagens (próximas 24 horas)

TLE

EnvelhecendoSource: Mike McCants

Época: Sep 10, 2026, 03:27 UTC

1 52259U 22040A   26253.14440030 0.00000000  00000-0  00000-0 0    08
2 52259  63.4262 355.9482 0015278  44.7360 315.2640 13.41004216    04

Acompanhe USA 327 em tempo real com AllMySat

Download on the App Store